DLH722 EDDM-ZBAA

Flight info

Callsign DLH722
Flight time N/A
Altitude 37000
Route KIRDI3S KIRDI DCT BUWOQ DCT OBFEZ DCT STEIN DCT TEGRI DCT LUGEB DCT UDROS UM859 BAMUP/N0483F390 UM859 KARDE UL851 TBN UM11 REBLO M11 MATAL T916 BALUN/K0898F390 T916 LONSI/K0891F410 T916 PIGAL M610 RULAD/K0891S1250 A343 POSOT B215 FKG W188 LIKMI W270 DKO W69 GUVBA GUVBA7X
Aircraft A359/H-SDE2E3GHIJ1J3J4J5LM1ORWXYZ/LB1D1

Departure

Time N/A
Airport Munich Airport (EDDM)

Arrival

Time 2026-05-07 06:42
Airport Beijing Capital International Airport (ZBAA)
Time Latitude Longitude Altitude Speed Heading
2026-05-07 06:05 40.61219 112.42811 41266 ft 561 kts 90°
2026-05-07 06:05 40.61092 112.47951 41257 ft 561 kts 90°
2026-05-07 06:06 40.60685 112.58226 41254 ft 562 kts 93°
2026-05-07 06:06 40.60040 112.68430 41258 ft 562 kts 94°
2026-05-07 06:07 40.59336 112.78687 41250 ft 562 kts 96°
2026-05-07 06:07 40.58487 112.88925 41249 ft 562 kts 95°
2026-05-07 06:08 40.57889 112.97514 41247 ft 562 kts 94°
2026-05-07 06:08 40.57219 113.07765 41245 ft 562 kts 94°
2026-05-07 06:09 40.56538 113.18014 41222 ft 562 kts 94°
2026-05-07 06:09 40.55842 113.28198 41212 ft 562 kts 94°
2026-05-07 06:10 40.55127 113.38451 41211 ft 563 kts 94°
2026-05-07 06:10 40.54406 113.48657 41211 ft 563 kts 94°
2026-05-07 06:11 40.53670 113.58942 41205 ft 564 kts 94°
2026-05-07 06:11 40.52925 113.69230 41092 ft 564 kts 94°
2026-05-07 06:11 40.52550 113.74349 40857 ft 559 kts 94°
2026-05-07 06:12 40.52180 113.79368 40276 ft 557 kts 94°
2026-05-07 06:12 40.51803 113.84472 39375 ft 562 kts 95°
2026-05-07 06:12 40.51421 113.89608 38548 ft 565 kts 94°
2026-05-07 06:12 40.51038 113.94758 37849 ft 564 kts 94°
2026-05-07 06:13 40.50656 113.99822 37164 ft 563 kts 95°
2026-05-07 06:13 40.50366 114.04952 36500 ft 560 kts 91°
2026-05-07 06:13 40.50176 114.10054 35808 ft 558 kts 91°
2026-05-07 06:13 40.49989 114.15150 35280 ft 554 kts 91°
2026-05-07 06:14 40.49791 114.20189 34730 ft 550 kts 91°
2026-05-07 06:14 40.49587 114.25146 34202 ft 546 kts 91°
2026-05-07 06:14 40.49375 114.30110 33663 ft 542 kts 91°
2026-05-07 06:14 40.49161 114.35048 33135 ft 538 kts 91°
2026-05-07 06:15 40.48944 114.39948 32602 ft 534 kts 91°
2026-05-07 06:15 40.48729 114.44753 32087 ft 529 kts 91°
2026-05-07 06:15 40.48512 114.49563 31550 ft 525 kts 91°
2026-05-07 06:15 40.48293 114.54343 31029 ft 520 kts 91°
2026-05-07 06:16 40.48075 114.59078 30509 ft 516 kts 91°
2026-05-07 06:16 40.47856 114.63770 30014 ft 511 kts 91°
2026-05-07 06:16 40.47641 114.68360 29511 ft 506 kts 91°
2026-05-07 06:16 40.47422 114.72968 29011 ft 501 kts 91°
2026-05-07 06:17 40.47205 114.77524 28506 ft 496 kts 91°
2026-05-07 06:17 40.46987 114.82025 28019 ft 490 kts 91°
2026-05-07 06:17 40.46774 114.86418 27538 ft 485 kts 90°
2026-05-07 06:17 40.46558 114.90817 27051 ft 480 kts 90°
2026-05-07 06:18 40.46342 114.95176 26566 ft 475 kts 90°
2026-05-07 06:18 40.46131 114.99485 26083 ft 469 kts 90°
2026-05-07 06:18 40.45922 115.03693 25601 ft 464 kts 90°
2026-05-07 06:18 40.45709 115.07917 25130 ft 459 kts 90°
2026-05-07 06:19 40.45495 115.12088 24639 ft 455 kts 90°
2026-05-07 06:19 40.45282 115.16218 24158 ft 450 kts 90°
2026-05-07 06:19 40.45073 115.20258 23688 ft 444 kts 90°
2026-05-07 06:19 40.44863 115.24286 23212 ft 438 kts 90°
2026-05-07 06:20 40.44656 115.28258 22744 ft 433 kts 90°
2026-05-07 06:20 40.44449 115.32192 22268 ft 428 kts 90°
2026-05-07 06:20 40.44245 115.36066 21805 ft 423 kts 90°
2026-05-07 06:20 40.44043 115.39857 21358 ft 418 kts 89°
2026-05-07 06:21 40.43840 115.43645 20890 ft 413 kts 89°
2026-05-07 06:21 40.43638 115.47391 20428 ft 408 kts 89°
2026-05-07 06:21 40.43438 115.51099 19987 ft 403 kts 89°
2026-05-07 06:21 40.43251 115.54702 19635 ft 395 kts 88°
2026-05-07 06:22 40.43206 115.58315 19434 ft 394 kts 85°
2026-05-07 06:22 40.43209 115.65487 18952 ft 392 kts 85°
2026-05-07 06:22 40.43195 115.69064 18516 ft 391 kts 85°
2026-05-07 06:23 40.43173 115.72624 18192 ft 389 kts 85°
2026-05-07 06:23 40.43146 115.76170 17894 ft 387 kts 85°
2026-05-07 06:23 40.43120 115.79702 17593 ft 384 kts 85°
2026-05-07 06:23 40.43088 115.83198 17286 ft 382 kts 85°
2026-05-07 06:24 40.43066 115.85509 17092 ft 381 kts 85°
2026-05-07 06:24 40.43020 115.90109 16700 ft 378 kts 86°
2026-05-07 06:24 40.42996 115.92446 16488 ft 377 kts 86°
2026-05-07 06:24 40.42960 115.95832 16161 ft 375 kts 86°
2026-05-07 06:25 40.42923 115.99242 15845 ft 373 kts 86°
2026-05-07 06:25 40.42889 116.02415 15532 ft 371 kts 86°
2026-05-07 06:25 40.42850 116.05795 15213 ft 369 kts 86°
2026-05-07 06:25 40.42811 116.09161 14885 ft 367 kts 86°
2026-05-07 06:26 40.42770 116.12460 14566 ft 365 kts 86°
2026-05-07 06:26 40.42729 116.15752 14230 ft 362 kts 86°
2026-05-07 06:26 40.42687 116.19091 13906 ft 361 kts 86°
2026-05-07 06:26 40.42648 116.22384 13581 ft 359 kts 86°
2026-05-07 06:27 40.42606 116.25646 13258 ft 356 kts 87°
2026-05-07 06:27 40.42563 116.28890 12923 ft 354 kts 87°
2026-05-07 06:27 40.42523 116.32068 12603 ft 351 kts 86°
2026-05-07 06:27 40.42490 116.35268 12282 ft 349 kts 87°
2026-05-07 06:28 40.42442 116.38453 11952 ft 347 kts 87°
2026-05-07 06:28 40.42392 116.41615 11626 ft 345 kts 87°
2026-05-07 06:28 40.42343 116.44759 11302 ft 344 kts 87°
2026-05-07 06:28 40.42294 116.47901 10975 ft 343 kts 87°
2026-05-07 06:29 40.42245 116.50991 10650 ft 341 kts 88°
2026-05-07 06:29 40.42196 116.54104 10339 ft 339 kts 87°
2026-05-07 06:29 40.42150 116.57190 10064 ft 335 kts 87°
2026-05-07 06:29 40.42099 116.60164 9989 ft 316 kts 88°
2026-05-07 06:30 40.41914 116.62977 9986 ft 305 kts 97°
2026-05-07 06:30 40.41191 116.65558 9917 ft 308 kts 117°
2026-05-07 06:30 40.39803 116.67684 9506 ft 309 kts 142°
2026-05-07 06:30 40.37897 116.68981 9278 ft 310 kts 164°
2026-05-07 06:31 40.35771 116.69333 9078 ft 306 kts 184°
2026-05-07 06:31 40.33640 116.69351 8884 ft 307 kts 178°
2026-05-07 06:31 40.31511 116.69591 8691 ft 307 kts 175°
2026-05-07 06:31 40.29385 116.69895 8493 ft 307 kts 175°
2026-05-07 06:32 40.27291 116.70210 8286 ft 306 kts 175°
2026-05-07 06:32 40.25165 116.70536 8085 ft 305 kts 175°
2026-05-07 06:32 40.23051 116.70861 7886 ft 305 kts 174°
2026-05-07 06:32 40.20949 116.71187 7680 ft 304 kts 174°
2026-05-07 06:33 40.18876 116.71506 7476 ft 302 kts 175°
2026-05-07 06:33 40.16788 116.71827 7307 ft 301 kts 174°
2026-05-07 06:33 40.14709 116.72148 7175 ft 300 kts 175°
2026-05-07 06:33 40.12633 116.72467 7042 ft 300 kts 174°
2026-05-07 06:34 40.10572 116.72787 6703 ft 302 kts 174°
2026-05-07 06:34 40.08494 116.73108 6342 ft 298 kts 174°
2026-05-07 06:34 40.06444 116.73425 5912 ft 294 kts 174°
2026-05-07 06:34 40.04407 116.73741 5475 ft 293 kts 174°
2026-05-07 06:35 40.02385 116.74060 5053 ft 291 kts 174°
2026-05-07 06:35 40.00379 116.74372 4689 ft 289 kts 174°
2026-05-07 06:35 39.98402 116.74677 4320 ft 288 kts 174°
2026-05-07 06:35 39.96436 116.74986 4175 ft 279 kts 173°
2026-05-07 06:36 39.94493 116.75292 3665 ft 283 kts 174°
2026-05-07 06:36 39.92499 116.75403 2919 ft 291 kts 187°
2026-05-07 06:36 39.90578 116.74551 2317 ft 293 kts 215°
2026-05-07 06:36 39.89206 116.72741 2041 ft 278 kts 242°
2026-05-07 06:37 39.88569 116.70646 1986 ft 257 kts 262°
2026-05-07 06:37 39.88685 116.68462 1988 ft 231 kts 292°
2026-05-07 06:37 39.89530 116.66821 1993 ft 211 kts 317°
2026-05-07 06:37 39.90595 116.65611 1984 ft 195 kts 322°
2026-05-07 06:38 39.91617 116.64554 1990 ft 182 kts 324°
2026-05-07 06:38 39.92724 116.63865 2010 ft 177 kts 345°
2026-05-07 06:38 39.93937 116.63606 2002 ft 173 kts 352°
2026-05-07 06:38 39.95090 116.63455 2008 ft 160 kts 351°
2026-05-07 06:39 39.96188 116.63280 1984 ft 159 kts 351°
2026-05-07 06:39 39.97267 116.63113 1853 ft 151 kts 351°
2026-05-07 06:39 39.98247 116.62977 1678 ft 135 kts 351°
2026-05-07 06:39 39.99168 116.62828 1456 ft 130 kts 349°
2026-05-07 06:40 40.00050 116.62689 1287 ft 125 kts 349°
2026-05-07 06:40 40.00911 116.62554 1117 ft 125 kts 349°
2026-05-07 06:40 40.01759 116.62405 951 ft 126 kts 349°
2026-05-07 06:40 40.02632 116.62277 783 ft 126 kts 351°
2026-05-07 06:41 40.03509 116.62141 617 ft 127 kts 350°
2026-05-07 06:41 40.04378 116.62006 462 ft 123 kts 349°
2026-05-07 06:41 40.05220 116.61874 313 ft 123 kts 349°
2026-05-07 06:41 40.06067 116.61738 149 ft 121 kts 349°
2026-05-07 06:42 40.06811 116.61623 127 ft 92 kts 353°
2026-05-07 06:42 40.07267 116.61535 126 ft 36 kts 342°
2026-05-07 06:42 40.07430 116.61419 128 ft 14 kts 323°
2026-05-07 06:42 40.07475 116.61329 130 ft 12 kts 268°
2026-05-07 06:43 40.07464 116.61206 128 ft 15 kts 264°
2026-05-07 06:43 40.07449 116.61061 130 ft 17 kts 263°
2026-05-07 06:43 40.07438 116.60938 128 ft 11 kts 263°
2026-05-07 06:43 40.07469 116.60890 125 ft 8 kts 338°
2026-05-07 06:44 40.07528 116.60888 128 ft 10 kts
2026-05-07 06:44 40.07599 116.60914 130 ft 8 kts 22°
2026-05-07 06:44 40.07633 116.60894 125 ft 6 kts 318°
2026-05-07 06:44 40.07658 116.60854 130 ft 1 kts 302°
2026-05-07 06:45 40.07662 116.60845 130 ft 2 kts 302°
2026-05-07 06:45 40.07670 116.60829 130 ft 2 kts 302°
2026-05-07 06:45 40.07671 116.60828 130 ft 0 kts 303°